Location: *
(2.5500°S, 65.9667°W)
Time: 12:36:12
(UTC+00:00)

H-2A R/B - Pass Details

Date: 30 May 2022
Orbit: 526 x 647 km, 98.3° (Epoch: 02 July)

Event Time Altitude Azimuth Distance (km) Brightness Sun altitude
Exits shadow 00:56:47 11° 338° (NNW) 1,933 5.5 -36.8°
Drops below altitude 10° 00:56:58 10° 338° (NNW) 2,007 5.6 -36.8°
Sets 00:59:09 0° 342° (NNW) 2,897 6.5 -37.3°
